Year,Month,Day,Hour,Minute,Value (Times are PST for temperature in C)
2015,08,25,00,00,15.10
2015,08,25,00,01,15.10
2015,08,25,00,02,15.10
2015,08,25,00,03,15.00
2015,08,25,00,04,15.00
2015,08,25,00,05,15.00
2015,08,25,00,06,15.10
2015,08,25,00,07,15.10
2015,08,25,00,08,15.10
2015,08,25,00,09,15.10
2015,08,25,00,10,15.10
2015,08,25,00,11,15.00
2015,08,25,00,12,15.10
2015,08,25,00,13,15.10
2015,08,25,00,14,15.00
2015,08,25,00,15,15.10
2015,08,25,00,16,15.10
2015,08,25,00,17,15.00
2015,08,25,00,18,15.00
2015,08,25,00,19,15.00
2015,08,25,00,20,15.00
2015,08,25,00,21,15.00
2015,08,25,00,22,14.90
2015,08,25,00,23,14.90
2015,08,25,00,24,14.90
2015,08,25,00,25,14.90
2015,08,25,00,26,14.90
2015,08,25,00,27,14.90
2015,08,25,00,28,14.90
2015,08,25,00,29,14.90
2015,08,25,00,30,14.90
2015,08,25,00,31,15.00
2015,08,25,00,32,15.00
2015,08,25,00,33,15.00
2015,08,25,00,34,15.00
2015,08,25,00,35,15.00
2015,08,25,00,36,15.10
2015,08,25,00,37,15.10
2015,08,25,00,38,15.10
2015,08,25,00,39,15.10
2015,08,25,00,40,15.10
2015,08,25,00,41,15.10
2015,08,25,00,42,15.10
2015,08,25,00,43,15.20
2015,08,25,00,44,15.30
2015,08,25,00,45,15.30
2015,08,25,00,46,15.40
2015,08,25,00,47,15.50
2015,08,25,00,48,15.50
2015,08,25,00,49,15.50
2015,08,25,00,50,15.60
2015,08,25,00,51,15.60
2015,08,25,00,52,15.60
2015,08,25,00,53,15.60
2015,08,25,00,54,15.60
2015,08,25,00,55,15.50
2015,08,25,00,56,15.50
2015,08,25,00,57,15.50
2015,08,25,00,58,15.50
2015,08,25,00,59,15.60
2015,08,25,01,00,15.60
2015,08,25,01,01,15.60
2015,08,25,01,02,15.60
2015,08,25,01,03,15.60
2015,08,25,01,04,15.60
2015,08,25,01,05,15.50
2015,08,25,01,06,15.50
2015,08,25,01,07,15.40
2015,08,25,01,08,15.40
2015,08,25,01,09,15.40
2015,08,25,01,10,15.30
2015,08,25,01,11,15.30
2015,08,25,01,12,15.30
2015,08,25,01,13,15.30
2015,08,25,01,14,15.30
2015,08,25,01,15,15.30
2015,08,25,01,16,15.30
2015,08,25,01,17,15.30
2015,08,25,01,18,15.30
2015,08,25,01,19,15.30
2015,08,25,01,20,15.20
2015,08,25,01,21,15.20
2015,08,25,01,22,15.20
2015,08,25,01,23,15.20
2015,08,25,01,24,15.10
2015,08,25,01,25,15.10
2015,08,25,01,26,15.10
2015,08,25,01,27,15.10
2015,08,25,01,28,15.00
2015,08,25,01,29,15.00
2015,08,25,01,30,15.00
2015,08,25,01,31,14.90
2015,08,25,01,32,14.90
2015,08,25,01,33,14.90
2015,08,25,01,34,14.80
2015,08,25,01,35,14.80
2015,08,25,01,36,14.80
2015,08,25,01,37,14.80
2015,08,25,01,38,14.80
2015,08,25,01,39,14.90
2015,08,25,01,40,14.90
2015,08,25,01,41,15.00
2015,08,25,01,42,15.00
2015,08,25,01,43,15.10
2015,08,25,01,44,15.10
2015,08,25,01,45,15.20
2015,08,25,01,46,15.20
2015,08,25,01,47,15.30
2015,08,25,01,48,15.30
2015,08,25,01,49,15.30
2015,08,25,01,50,15.30
2015,08,25,01,51,15.40
2015,08,25,01,52,15.40
2015,08,25,01,53,15.40
2015,08,25,01,54,15.40
2015,08,25,01,55,15.40
2015,08,25,01,56,15.30
2015,08,25,01,57,15.30
2015,08,25,01,58,15.30
2015,08,25,01,59,15.30
2015,08,25,02,00,15.20
2015,08,25,02,01,15.20
2015,08,25,02,02,15.20
2015,08,25,02,03,15.20
2015,08,25,02,04,15.10
2015,08,25,02,05,15.10
2015,08,25,02,06,15.10
2015,08,25,02,07,15.00
2015,08,25,02,08,15.00
2015,08,25,02,09,14.90
2015,08,25,02,10,14.90
2015,08,25,02,11,14.90
2015,08,25,02,12,14.80
2015,08,25,02,13,14.80
2015,08,25,02,14,14.90
2015,08,25,02,15,14.90
2015,08,25,02,16,14.90
2015,08,25,02,17,14.90
2015,08,25,02,18,14.90
2015,08,25,02,19,14.90
2015,08,25,02,20,15.00
2015,08,25,02,21,15.00
2015,08,25,02,22,15.00
2015,08,25,02,23,15.00
2015,08,25,02,24,15.10
2015,08,25,02,25,15.10
2015,08,25,02,26,15.10
2015,08,25,02,27,15.10
2015,08,25,02,28,15.10
2015,08,25,02,29,15.10
2015,08,25,02,30,15.00
2015,08,25,02,31,15.00
2015,08,25,02,32,14.90
2015,08,25,02,33,14.90
2015,08,25,02,34,14.90
2015,08,25,02,35,14.90
2015,08,25,02,36,14.90
2015,08,25,02,37,14.90
2015,08,25,02,38,14.90
2015,08,25,02,39,14.90
2015,08,25,02,40,14.80
2015,08,25,02,41,14.80
2015,08,25,02,42,14.80
2015,08,25,02,43,14.80
2015,08,25,02,44,14.70
2015,08,25,02,45,14.70
2015,08,25,02,46,14.70
2015,08,25,02,47,14.60
2015,08,25,02,48,14.60
2015,08,25,02,49,14.60
2015,08,25,02,50,14.50
2015,08,25,02,51,14.50
2015,08,25,02,52,14.50
2015,08,25,02,53,14.40
2015,08,25,02,54,14.40
2015,08,25,02,55,14.40
2015,08,25,02,56,14.40
2015,08,25,02,57,14.30
2015,08,25,02,58,14.30
2015,08,25,02,59,14.30
2015,08,25,03,00,14.30
2015,08,25,03,01,14.30
2015,08,25,03,02,14.20
2015,08,25,03,03,14.20
2015,08,25,03,04,14.20
2015,08,25,03,05,14.20
2015,08,25,03,06,14.10
2015,08,25,03,07,14.10
2015,08,25,03,08,14.10
2015,08,25,03,09,14.00
2015,08,25,03,10,14.00
2015,08,25,03,11,14.00
2015,08,25,03,12,13.90
2015,08,25,03,13,13.90
2015,08,25,03,14,13.90
2015,08,25,03,15,13.90
2015,08,25,03,16,13.80
2015,08,25,03,17,13.80
2015,08,25,03,18,13.80
2015,08,25,03,19,13.70
2015,08,25,03,20,13.70
2015,08,25,03,21,13.70
2015,08,25,03,22,13.60
2015,08,25,03,23,13.60
2015,08,25,03,24,13.60
2015,08,25,03,25,13.50
2015,08,25,03,26,13.50
2015,08,25,03,27,13.40
2015,08,25,03,28,13.40
2015,08,25,03,29,13.40
2015,08,25,03,30,13.40
2015,08,25,03,31,13.30
2015,08,25,03,32,13.30
2015,08,25,03,33,13.30
2015,08,25,03,34,13.20
2015,08,25,03,35,13.20
2015,08,25,03,36,13.20
2015,08,25,03,37,13.20
2015,08,25,03,38,13.10
2015,08,25,03,39,13.10
2015,08,25,03,40,13.10
2015,08,25,03,41,13.00
2015,08,25,03,42,13.00
2015,08,25,03,43,13.00
2015,08,25,03,44,12.90
2015,08,25,03,45,12.90
2015,08,25,03,46,12.90
2015,08,25,03,47,12.80
2015,08,25,03,48,12.80
2015,08,25,03,49,12.80
2015,08,25,03,50,12.80
2015,08,25,03,51,12.80
2015,08,25,03,52,12.70
2015,08,25,03,53,12.70
2015,08,25,03,54,12.70
2015,08,25,03,55,12.70
2015,08,25,03,56,12.60
2015,08,25,03,57,12.60
2015,08,25,03,58,12.60
2015,08,25,03,59,12.60
2015,08,25,04,00,12.60
2015,08,25,04,01,12.50
2015,08,25,04,02,12.50
2015,08,25,04,03,12.50
2015,08,25,04,04,12.40
2015,08,25,04,05,12.40
2015,08,25,04,06,12.40
2015,08,25,04,07,12.40
2015,08,25,04,08,12.40
2015,08,25,04,09,12.40
2015,08,25,04,10,12.30
2015,08,25,04,11,12.30
2015,08,25,04,12,12.30
2015,08,25,04,13,12.30
2015,08,25,04,14,12.30
2015,08,25,04,15,12.20
2015,08,25,04,16,12.20
2015,08,25,04,17,12.20
2015,08,25,04,18,12.20
2015,08,25,04,19,12.20
2015,08,25,04,20,12.10
2015,08,25,04,21,12.10
2015,08,25,04,22,12.10
2015,08,25,04,23,12.10
2015,08,25,04,24,12.10
2015,08,25,04,25,12.10
2015,08,25,04,26,12.10
2015,08,25,04,27,12.00
2015,08,25,04,28,12.00
2015,08,25,04,29,12.00
2015,08,25,04,30,12.00
2015,08,25,04,31,11.90
2015,08,25,04,32,11.90
2015,08,25,04,33,11.90
2015,08,25,04,34,11.90
2015,08,25,04,35,11.90
2015,08,25,04,36,11.90
2015,08,25,04,37,11.90
2015,08,25,04,38,11.80
2015,08,25,04,39,11.80
2015,08,25,04,40,11.80
2015,08,25,04,41,11.80
2015,08,25,04,42,11.80
2015,08,25,04,43,11.80
2015,08,25,04,44,11.80
2015,08,25,04,45,11.80
2015,08,25,04,46,11.80
2015,08,25,04,47,11.80
2015,08,25,04,48,11.80
2015,08,25,04,49,11.80
2015,08,25,04,50,11.80
2015,08,25,04,51,11.70
2015,08,25,04,52,11.70
2015,08,25,04,53,11.70
2015,08,25,04,54,11.70
2015,08,25,04,55,11.70
2015,08,25,04,56,11.70
2015,08,25,04,57,11.70
2015,08,25,04,58,11.70
2015,08,25,04,59,11.70
2015,08,25,05,00,11.70
2015,08,25,05,01,11.60
2015,08,25,05,02,11.60
2015,08,25,05,03,11.60
2015,08,25,05,04,11.60
2015,08,25,05,05,11.60
2015,08,25,05,06,11.60
2015,08,25,05,07,11.60
2015,08,25,05,08,11.60
2015,08,25,05,09,11.70
2015,08,25,05,10,11.70
2015,08,25,05,11,11.60
2015,08,25,05,12,11.60
2015,08,25,05,13,11.60
2015,08,25,05,14,11.60
2015,08,25,05,15,11.60
2015,08,25,05,16,11.60
2015,08,25,05,17,11.60
2015,08,25,05,18,11.60
2015,08,25,05,19,11.60
2015,08,25,05,20,11.60
2015,08,25,05,21,11.60
2015,08,25,05,22,11.60
2015,08,25,05,23,11.60
2015,08,25,05,24,11.60
2015,08,25,05,25,11.60
2015,08,25,05,26,11.70
2015,08,25,05,27,11.70
2015,08,25,05,28,11.70
2015,08,25,05,29,11.70
2015,08,25,05,30,11.70
2015,08,25,05,31,11.70
2015,08,25,05,32,11.70
2015,08,25,05,33,11.70
2015,08,25,05,34,11.70
2015,08,25,05,35,11.70
2015,08,25,05,36,11.70
2015,08,25,05,37,11.70
2015,08,25,05,38,11.70
2015,08,25,05,39,11.70
2015,08,25,05,40,11.70
2015,08,25,05,41,11.70
2015,08,25,05,42,11.70
2015,08,25,05,43,11.70
2015,08,25,05,44,11.60
2015,08,25,05,45,11.60
2015,08,25,05,46,11.60
2015,08,25,05,47,11.60
2015,08,25,05,48,11.50
2015,08,25,05,49,11.50
2015,08,25,05,50,11.40
2015,08,25,05,51,11.40
2015,08,25,05,52,11.40
2015,08,25,05,53,11.40
2015,08,25,05,54,11.40
2015,08,25,05,55,11.30
2015,08,25,05,56,11.30
2015,08,25,05,57,11.30
2015,08,25,05,58,11.30
2015,08,25,05,59,11.30
2015,08,25,06,00,11.30
2015,08,25,06,01,11.30
2015,08,25,06,02,11.20
2015,08,25,06,03,11.20
2015,08,25,06,04,11.20
2015,08,25,06,05,11.20
2015,08,25,06,06,11.20
2015,08,25,06,07,11.20
2015,08,25,06,08,11.20
2015,08,25,06,09,11.20
2015,08,25,06,10,11.20
2015,08,25,06,11,11.20
2015,08,25,06,12,11.20
2015,08,25,06,13,11.10
2015,08,25,06,14,11.10
2015,08,25,06,15,11.10
2015,08,25,06,16,11.10
2015,08,25,06,17,11.10
2015,08,25,06,18,11.10
2015,08,25,06,19,11.10
2015,08,25,06,20,11.10
2015,08,25,06,21,11.10
2015,08,25,06,22,11.20
2015,08,25,06,23,11.20
2015,08,25,06,24,11.20
2015,08,25,06,25,11.20
2015,08,25,06,26,11.20
2015,08,25,06,27,11.20
2015,08,25,06,28,11.20
2015,08,25,06,29,11.20
2015,08,25,06,30,11.20
2015,08,25,06,31,11.10
2015,08,25,06,32,11.10
2015,08,25,06,33,11.10
2015,08,25,06,34,11.10
2015,08,25,06,35,11.10
2015,08,25,06,36,11.10
2015,08,25,06,37,11.10
2015,08,25,06,38,11.10
2015,08,25,06,39,11.10
2015,08,25,06,40,11.10
2015,08,25,06,41,11.10
2015,08,25,06,42,11.10
2015,08,25,06,43,11.10
2015,08,25,06,44,11.10
2015,08,25,06,45,11.20
2015,08,25,06,46,11.20
2015,08,25,06,47,11.20
2015,08,25,06,48,11.20
2015,08,25,06,49,11.20
2015,08,25,06,50,11.20
2015,08,25,06,51,11.20
2015,08,25,06,52,11.20
2015,08,25,06,53,11.30
2015,08,25,06,54,11.30
2015,08,25,06,55,11.30
2015,08,25,06,56,11.30
2015,08,25,06,57,11.30
2015,08,25,06,58,11.30
2015,08,25,06,59,11.40
2015,08,25,07,00,11.40
2015,08,25,07,01,11.50
2015,08,25,07,02,11.50
2015,08,25,07,03,11.60
2015,08,25,07,04,11.60
2015,08,25,07,05,11.70
2015,08,25,07,06,11.70
2015,08,25,07,07,11.80
2015,08,25,07,08,11.80
2015,08,25,07,09,11.90
2015,08,25,07,10,11.90
2015,08,25,07,11,11.90
2015,08,25,07,12,12.00
2015,08,25,07,13,12.00
2015,08,25,07,14,12.00
2015,08,25,07,15,12.10
2015,08,25,07,16,12.10
2015,08,25,07,17,12.10
2015,08,25,07,18,12.10
2015,08,25,07,19,12.10
2015,08,25,07,20,12.20
2015,08,25,07,21,12.20
2015,08,25,07,22,12.20
2015,08,25,07,23,12.20
2015,08,25,07,24,12.30
2015,08,25,07,25,12.30
2015,08,25,07,26,12.30
2015,08,25,07,27,12.40
2015,08,25,07,28,12.40
2015,08,25,07,29,12.40
2015,08,25,07,30,12.50
2015,08,25,07,31,12.50
2015,08,25,07,32,12.60
2015,08,25,07,33,12.60
2015,08,25,07,34,12.60
2015,08,25,07,35,12.60
2015,08,25,07,36,12.70
2015,08,25,07,37,12.70
2015,08,25,07,38,12.70
2015,08,25,07,39,12.70
2015,08,25,07,40,12.80
2015,08,25,07,41,12.80
2015,08,25,07,42,12.90
2015,08,25,07,43,12.90
2015,08,25,07,44,13.00
2015,08,25,07,45,13.00
2015,08,25,07,46,13.10
2015,08,25,07,47,13.10
2015,08,25,07,48,13.20
2015,08,25,07,49,13.20
2015,08,25,07,50,13.30
2015,08,25,07,51,13.30
2015,08,25,07,52,13.40
2015,08,25,07,53,13.40
2015,08,25,07,54,13.40
2015,08,25,07,55,13.50
2015,08,25,07,56,13.60
2015,08,25,07,57,13.60
2015,08,25,07,58,13.70
2015,08,25,07,59,13.70
2015,08,25,08,00,13.70
2015,08,25,08,01,13.80
2015,08,25,08,02,13.80
2015,08,25,08,03,13.90
2015,08,25,08,04,13.90
2015,08,25,08,05,13.90
2015,08,25,08,06,14.00
2015,08,25,08,07,14.00
2015,08,25,08,08,14.00
2015,08,25,08,09,14.10
2015,08,25,08,10,14.10
2015,08,25,08,11,14.10
2015,08,25,08,12,14.20
2015,08,25,08,13,14.20
2015,08,25,08,14,14.20
2015,08,25,08,15,14.30
2015,08,25,08,16,14.30
2015,08,25,08,17,14.30
2015,08,25,08,18,14.40
2015,08,25,08,19,14.40
2015,08,25,08,20,14.50
2015,08,25,08,21,14.50
2015,08,25,08,22,14.60
2015,08,25,08,23,14.60
2015,08,25,08,24,14.60
2015,08,25,08,25,14.70
2015,08,25,08,26,14.70
2015,08,25,08,27,14.70
2015,08,25,08,28,14.80
2015,08,25,08,29,14.80
2015,08,25,08,30,14.80
2015,08,25,08,31,14.80
2015,08,25,08,32,14.90
2015,08,25,08,33,14.90
2015,08,25,08,34,14.90
2015,08,25,08,35,15.00
2015,08,25,08,36,15.00
2015,08,25,08,37,15.00
2015,08,25,08,38,15.10
2015,08,25,08,39,15.10
2015,08,25,08,40,15.10
2015,08,25,08,41,15.20
2015,08,25,08,42,15.20
2015,08,25,08,43,15.20
2015,08,25,08,44,15.20
2015,08,25,08,45,15.30
2015,08,25,08,46,15.30
2015,08,25,08,47,15.30
2015,08,25,08,48,15.30
2015,08,25,08,49,15.30
2015,08,25,08,50,15.30
2015,08,25,08,51,15.30
2015,08,25,08,52,15.30
2015,08,25,08,53,15.40
2015,08,25,08,54,15.40
2015,08,25,08,55,15.40
2015,08,25,08,56,15.40
2015,08,25,08,57,15.50
2015,08,25,08,58,15.50
2015,08,25,08,59,15.60
2015,08,25,09,00,15.60
2015,08,25,09,01,15.70
2015,08,25,09,02,15.80
2015,08,25,09,03,15.80
2015,08,25,09,04,15.90
2015,08,25,09,05,15.90
2015,08,25,09,06,16.00
2015,08,25,09,07,16.00
2015,08,25,09,08,16.10
2015,08,25,09,09,16.10
2015,08,25,09,10,16.20
2015,08,25,09,11,16.30
2015,08,25,09,12,16.30
2015,08,25,09,13,16.30
2015,08,25,09,14,16.40
2015,08,25,09,15,16.40
2015,08,25,09,16,16.40
2015,08,25,09,17,16.40
2015,08,25,09,18,16.40
2015,08,25,09,19,16.40
2015,08,25,09,20,16.40
2015,08,25,09,21,16.40
2015,08,25,09,22,16.50
2015,08,25,09,23,16.50
2015,08,25,09,24,16.60
2015,08,25,09,25,16.60
2015,08,25,09,26,16.70
2015,08,25,09,27,16.70
2015,08,25,09,28,16.70
2015,08,25,09,29,16.60
2015,08,25,09,30,16.60
2015,08,25,09,31,16.60
2015,08,25,09,32,16.60
2015,08,25,09,33,16.70
2015,08,25,09,34,16.70
2015,08,25,09,35,16.80
2015,08,25,09,36,16.80
2015,08,25,09,37,16.90
2015,08,25,09,38,16.90
2015,08,25,09,39,16.90
2015,08,25,09,40,17.00
2015,08,25,09,41,17.00
2015,08,25,09,42,17.10
2015,08,25,09,43,17.10
2015,08,25,09,44,17.10
2015,08,25,09,45,17.10
2015,08,25,09,46,17.10
2015,08,25,09,47,17.10
2015,08,25,09,48,17.10
2015,08,25,09,49,17.10
2015,08,25,09,50,17.10
2015,08,25,09,51,17.20
2015,08,25,09,52,17.20
2015,08,25,09,53,17.20
2015,08,25,09,54,17.30
2015,08,25,09,55,17.30
2015,08,25,09,56,17.30
2015,08,25,09,57,17.30
2015,08,25,09,58,17.30
2015,08,25,09,59,17.40
2015,08,25,10,00,17.40
2015,08,25,10,01,17.50
2015,08,25,10,02,17.50
2015,08,25,10,03,17.60
2015,08,25,10,04,17.60
2015,08,25,10,05,17.60
2015,08,25,10,06,17.70
2015,08,25,10,07,17.70
2015,08,25,10,08,17.70
2015,08,25,10,09,17.70
2015,08,25,10,10,17.70
2015,08,25,10,11,17.70
2015,08,25,10,12,17.80
2015,08,25,10,13,17.80
2015,08,25,10,14,17.80
2015,08,25,10,15,17.80
2015,08,25,10,16,17.90
2015,08,25,10,17,17.90
2015,08,25,10,18,18.00
2015,08,25,10,19,18.00
2015,08,25,10,20,18.00
2015,08,25,10,21,18.10
2015,08,25,10,22,18.10
2015,08,25,10,23,18.10
2015,08,25,10,24,18.10
2015,08,25,10,25,18.10
2015,08,25,10,26,18.20
2015,08,25,10,27,18.30
2015,08,25,10,28,18.30
2015,08,25,10,29,18.30
2015,08,25,10,30,18.30
2015,08,25,10,31,18.20
2015,08,25,10,32,18.20
2015,08,25,10,33,18.10
2015,08,25,10,34,18.00
2015,08,25,10,35,18.00
2015,08,25,10,36,17.90
2015,08,25,10,37,17.90
2015,08,25,10,38,18.00
2015,08,25,10,39,17.90
2015,08,25,10,40,17.90
2015,08,25,10,41,17.80
2015,08,25,10,42,17.80
2015,08,25,10,43,17.80
2015,08,25,10,44,17.80
2015,08,25,10,45,17.90
2015,08,25,10,46,17.90
2015,08,25,10,47,17.90
2015,08,25,10,48,18.00
2015,08,25,10,49,18.00
2015,08,25,10,50,18.10
2015,08,25,10,51,18.10
2015,08,25,10,52,18.10
2015,08,25,10,53,18.10
2015,08,25,10,54,18.10
2015,08,25,10,55,18.10
2015,08,25,10,56,18.20
2015,08,25,10,57,18.20
2015,08,25,10,58,18.20
2015,08,25,10,59,18.20
2015,08,25,11,00,18.20
2015,08,25,11,01,18.20
2015,08,25,11,02,18.10
2015,08,25,11,03,18.20
2015,08,25,11,04,18.20
2015,08,25,11,05,18.10
2015,08,25,11,06,18.10
2015,08,25,11,07,18.10
2015,08,25,11,08,18.10
2015,08,25,11,09,18.10
2015,08,25,11,10,18.20
2015,08,25,11,11,18.20
2015,08,25,11,12,18.20
2015,08,25,11,13,18.20
2015,08,25,11,14,18.20
2015,08,25,11,15,18.30
2015,08,25,11,16,18.30
2015,08,25,11,17,18.30
2015,08,25,11,18,18.30
2015,08,25,11,19,18.40
2015,08,25,11,20,18.40
2015,08,25,11,21,18.40
2015,08,25,11,22,18.40
2015,08,25,11,23,18.50
2015,08,25,11,24,18.50
2015,08,25,11,25,18.60
2015,08,25,11,26,18.60
2015,08,25,11,27,18.60
2015,08,25,11,28,18.70
2015,08,25,11,29,18.70
2015,08,25,11,30,18.70
2015,08,25,11,31,18.70
2015,08,25,11,32,18.70
2015,08,25,11,33,18.70
2015,08,25,11,34,18.70
2015,08,25,11,35,18.80
2015,08,25,11,36,18.80
2015,08,25,11,37,18.80
2015,08,25,11,38,18.90
2015,08,25,11,39,18.90
2015,08,25,11,40,18.80
2015,08,25,11,41,18.80
2015,08,25,11,42,18.80
2015,08,25,11,43,18.80
2015,08,25,11,44,18.80
2015,08,25,11,45,18.80
2015,08,25,11,46,18.90
2015,08,25,11,47,18.90
2015,08,25,11,48,19.00
2015,08,25,11,49,19.00
2015,08,25,11,50,18.90
2015,08,25,11,51,18.80
2015,08,25,11,52,18.80
2015,08,25,11,53,18.70
2015,08,25,11,54,18.70
2015,08,25,11,55,18.70
2015,08,25,11,56,18.70
2015,08,25,11,57,18.80
2015,08,25,11,58,18.80
2015,08,25,11,59,18.90
2015,08,25,12,00,18.90
2015,08,25,12,01,18.90
2015,08,25,12,02,18.90
2015,08,25,12,03,19.00
2015,08,25,12,04,19.00
2015,08,25,12,05,19.00
2015,08,25,12,06,19.00
2015,08,25,12,07,19.10
2015,08,25,12,08,19.10
2015,08,25,12,09,19.20
2015,08,25,12,10,19.20
2015,08,25,12,11,19.30
2015,08,25,12,12,19.40
2015,08,25,12,13,19.50
2015,08,25,12,14,19.50
2015,08,25,12,15,19.60
2015,08,25,12,16,19.70
2015,08,25,12,17,19.80
2015,08,25,12,18,19.80
2015,08,25,12,19,19.90
2015,08,25,12,20,19.90
2015,08,25,12,21,20.00
2015,08,25,12,22,20.10
2015,08,25,12,23,20.10
2015,08,25,12,24,20.20
2015,08,25,12,25,20.10
2015,08,25,12,26,20.10
2015,08,25,12,27,20.00
2015,08,25,12,28,20.00
2015,08,25,12,29,19.90
2015,08,25,12,30,19.90
2015,08,25,12,31,20.00
2015,08,25,12,32,20.10
2015,08,25,12,33,20.20
2015,08,25,12,34,20.20
2015,08,25,12,35,20.20
2015,08,25,12,36,20.10
2015,08,25,12,37,20.10
2015,08,25,12,38,20.00
2015,08,25,12,39,20.00
2015,08,25,12,40,20.00
2015,08,25,12,41,20.10
2015,08,25,12,42,20.10
2015,08,25,12,43,20.00
2015,08,25,12,44,20.00
2015,08,25,12,45,20.00
2015,08,25,12,46,19.90
2015,08,25,12,47,19.90
2015,08,25,12,48,19.80
2015,08,25,12,49,19.70
2015,08,25,12,50,19.60
2015,08,25,12,51,19.60
2015,08,25,12,52,19.60
2015,08,25,12,53,19.60
2015,08,25,12,54,19.70
2015,08,25,12,55,19.70
2015,08,25,12,56,19.70
2015,08,25,12,57,19.70
2015,08,25,12,58,19.70
2015,08,25,12,59,19.70
2015,08,25,13,00,19.60
2015,08,25,13,01,19.70
2015,08,25,13,02,19.80
2015,08,25,13,03,19.80
2015,08,25,13,04,19.90
2015,08,25,13,05,20.10
2015,08,25,13,06,20.10
2015,08,25,13,07,20.20
2015,08,25,13,08,20.30
2015,08,25,13,09,20.30
2015,08,25,13,10,20.40
2015,08,25,13,11,20.50
2015,08,25,13,12,20.50
2015,08,25,13,13,20.60
2015,08,25,13,14,20.50
2015,08,25,13,15,20.50
2015,08,25,13,16,20.40
2015,08,25,13,17,20.40
2015,08,25,13,18,20.40
2015,08,25,13,19,20.40
2015,08,25,13,20,20.40
2015,08,25,13,21,20.40
2015,08,25,13,22,20.40
2015,08,25,13,23,20.40
2015,08,25,13,24,20.40
2015,08,25,13,25,20.40
2015,08,25,13,26,20.50
2015,08,25,13,27,20.50
2015,08,25,13,28,20.60
2015,08,25,13,29,20.60
2015,08,25,13,30,20.60
2015,08,25,13,31,20.70
2015,08,25,13,32,20.60
2015,08,25,13,33,20.60
2015,08,25,13,34,20.60
2015,08,25,13,35,20.60
2015,08,25,13,36,20.70
2015,08,25,13,37,20.70
2015,08,25,13,38,20.80
2015,08,25,13,39,20.90
2015,08,25,13,40,20.90
2015,08,25,13,41,21.00
2015,08,25,13,42,21.00
2015,08,25,13,43,21.00
2015,08,25,13,44,21.00
2015,08,25,13,45,21.00
2015,08,25,13,46,21.00
2015,08,25,13,47,21.00
2015,08,25,13,48,21.00
2015,08,25,13,49,21.00
2015,08,25,13,50,20.90
2015,08,25,13,51,21.00
2015,08,25,13,52,21.10
2015,08,25,13,53,21.20
2015,08,25,13,54,21.30
2015,08,25,13,55,21.30
2015,08,25,13,56,21.40
2015,08,25,13,57,21.50
2015,08,25,13,58,21.50
2015,08,25,13,59,21.50
2015,08,25,14,00,21.50
2015,08,25,14,01,21.50
2015,08,25,14,02,21.50
2015,08,25,14,03,21.60
2015,08,25,14,04,21.70
2015,08,25,14,05,21.70
2015,08,25,14,06,21.70
2015,08,25,14,07,21.70
2015,08,25,14,08,21.70
2015,08,25,14,09,21.70
2015,08,25,14,10,21.70
2015,08,25,14,11,21.70
2015,08,25,14,12,21.70
2015,08,25,14,13,21.70
2015,08,25,14,14,21.70
2015,08,25,14,15,21.70
2015,08,25,14,16,21.70
2015,08,25,14,17,21.80
2015,08,25,14,18,21.70
2015,08,25,14,19,21.70
2015,08,25,14,20,21.70
2015,08,25,14,21,21.80
2015,08,25,14,22,21.80
2015,08,25,14,23,21.80
2015,08,25,14,24,21.80
2015,08,25,14,25,21.80
2015,08,25,14,26,21.90
2015,08,25,14,27,21.90
2015,08,25,14,28,21.90
2015,08,25,14,29,21.90
2015,08,25,14,30,22.00
2015,08,25,14,31,22.00
2015,08,25,14,32,22.10
2015,08,25,14,33,22.10
2015,08,25,14,34,22.10
2015,08,25,14,35,22.10
2015,08,25,14,36,22.20
2015,08,25,14,37,22.20
2015,08,25,14,38,22.30
2015,08,25,14,39,22.40
2015,08,25,14,40,22.40
2015,08,25,14,41,22.40
2015,08,25,14,42,22.50
2015,08,25,14,43,22.50
2015,08,25,14,44,22.50
2015,08,25,14,45,22.50
2015,08,25,14,46,22.60
2015,08,25,14,47,22.50
2015,08,25,14,48,22.50
2015,08,25,14,49,22.40
2015,08,25,14,50,22.40
2015,08,25,14,51,22.30
2015,08,25,14,52,22.30
2015,08,25,14,53,22.40
2015,08,25,14,54,22.40
2015,08,25,14,55,22.40
2015,08,25,14,56,22.40
2015,08,25,14,57,22.40
2015,08,25,14,58,22.40
2015,08,25,14,59,22.40
2015,08,25,15,00,22.30
2015,08,25,15,01,22.20
2015,08,25,15,02,22.20
2015,08,25,15,03,22.10
2015,08,25,15,04,22.00
2015,08,25,15,05,21.90
2015,08,25,15,06,21.80
2015,08,25,15,07,21.80
2015,08,25,15,08,21.60
2015,08,25,15,09,21.50
2015,08,25,15,10,21.40
2015,08,25,15,11,21.30
2015,08,25,15,12,21.20
2015,08,25,15,13,21.10
2015,08,25,15,14,21.00
2015,08,25,15,15,20.90
2015,08,25,15,16,20.90
2015,08,25,15,17,20.90
2015,08,25,15,18,20.80
2015,08,25,15,19,20.80
2015,08,25,15,20,20.80
2015,08,25,15,21,20.90
2015,08,25,15,22,21.00
2015,08,25,15,23,21.00
2015,08,25,15,24,21.10
2015,08,25,15,25,21.20
2015,08,25,15,26,21.20
2015,08,25,15,27,21.30
2015,08,25,15,28,21.40
2015,08,25,15,29,21.50
2015,08,25,15,30,21.60
2015,08,25,15,31,21.60
2015,08,25,15,32,21.60
2015,08,25,15,33,21.70
2015,08,25,15,34,21.70
2015,08,25,15,35,21.70
2015,08,25,15,36,21.50
2015,08,25,15,37,21.30
2015,08,25,15,38,21.00
2015,08,25,15,39,20.80
2015,08,25,15,40,20.60
2015,08,25,15,41,20.50
2015,08,25,15,42,20.40
2015,08,25,15,43,20.30
2015,08,25,15,44,20.40
2015,08,25,15,45,20.40
2015,08,25,15,46,20.40
2015,08,25,15,47,20.40
2015,08,25,15,48,20.50
2015,08,25,15,49,20.50
2015,08,25,15,50,20.60
2015,08,25,15,51,20.70
2015,08,25,15,52,20.70
2015,08,25,15,53,20.80
2015,08,25,15,54,20.90
2015,08,25,15,55,21.00
2015,08,25,15,56,21.00
2015,08,25,15,57,21.10
2015,08,25,15,58,21.10
2015,08,25,15,59,21.10
2015,08,25,16,00,21.10
2015,08,25,16,01,21.20
2015,08,25,16,02,21.30
2015,08,25,16,03,21.40
2015,08,25,16,04,21.40
2015,08,25,16,05,21.50
2015,08,25,16,06,21.50
2015,08,25,16,07,21.60
2015,08,25,16,08,21.60
2015,08,25,16,09,21.60
2015,08,25,16,10,21.60
2015,08,25,16,11,21.60
2015,08,25,16,12,21.60
2015,08,25,16,13,21.50
2015,08,25,16,14,21.50
2015,08,25,16,15,21.40
2015,08,25,16,16,21.40
2015,08,25,16,17,21.40
2015,08,25,16,18,21.40
2015,08,25,16,19,21.40
2015,08,25,16,20,21.30
2015,08,25,16,21,21.30
2015,08,25,16,22,21.30
2015,08,25,16,23,21.20
2015,08,25,16,24,21.20
2015,08,25,16,25,21.10
2015,08,25,16,26,21.10
2015,08,25,16,27,21.10
2015,08,25,16,28,21.10
2015,08,25,16,29,21.10
2015,08,25,16,30,21.20
2015,08,25,16,31,21.20
2015,08,25,16,32,21.20
2015,08,25,16,33,21.20
2015,08,25,16,34,21.20
2015,08,25,16,35,21.20
2015,08,25,16,36,21.20
2015,08,25,16,37,21.10
2015,08,25,16,38,21.00
2015,08,25,16,39,21.00
2015,08,25,16,40,20.90
2015,08,25,16,41,20.80
2015,08,25,16,42,20.60
2015,08,25,16,43,20.50
2015,08,25,16,44,20.40
2015,08,25,16,45,20.30
2015,08,25,16,46,20.20
2015,08,25,16,47,20.00
2015,08,25,16,48,19.90
2015,08,25,16,49,19.90
2015,08,25,16,50,19.80
2015,08,25,16,51,19.80
2015,08,25,16,52,19.70
2015,08,25,16,53,19.70
2015,08,25,16,54,19.70
2015,08,25,16,55,19.70
2015,08,25,16,56,19.80
2015,08,25,16,57,19.80
2015,08,25,16,58,19.90
2015,08,25,16,59,19.90
2015,08,25,17,00,20.00
2015,08,25,17,01,20.10
2015,08,25,17,02,20.20
2015,08,25,17,03,20.30
2015,08,25,17,04,20.40
2015,08,25,17,05,20.50
2015,08,25,17,06,20.60
2015,08,25,17,07,20.70
2015,08,25,17,08,20.80
2015,08,25,17,09,20.80
2015,08,25,17,10,20.90
2015,08,25,17,11,20.90
2015,08,25,17,12,21.00
2015,08,25,17,13,21.00
2015,08,25,17,14,21.10
2015,08,25,17,15,21.10
2015,08,25,17,16,21.20
2015,08,25,17,17,21.20
2015,08,25,17,18,21.30
2015,08,25,17,19,21.30